Regional Weather Roundup
Issued by NWS Midland/Odessa, TX

Home | Current Version | Previous Version | Text Only | Print | Product List | Glossary On
Versions: 1 2 3 4 5 6 7 8 9 10 11 12 13 14 15 16 17 18 19 20 21 22 23 24 25 26 27 28 29 30 31 32 33 34 35 36 37 38 39 40 41 42 43 44 45 46 47 48 49 50
000
ASUS44 KMAF 010610
RWRMAF
MIDLAND AREA WEATHER ROUNDUP
NATIONAL WEATHER SERVICE MIDLAND TX
1200 AM CST SUN FEB 01 2015

...IN SOUTHWEST TEXAS AND SOUTHEAST NEW MEXICO...

CITY           SKY/WX    TMP DP  RH WIND       PRES   REMARKS
ALPINE         CLEAR     44  39  82 SW5       30.00S
ANDREWS        CLOUDY    48  48 100 SW7       29.89S FOG
ARTESIA        CLOUDY    43  43 100 CALM      29.90S FOG
BIG SPRING     CLOUDY    54  51  92 SW6       29.90F
CARLSBAD       FOG       41  39  93 S3        29.88S VSB 1
DRYDEN           N/A     52  50  93 CALM      29.90R
FORT STOCKTON  CLEAR     49  46  90 S10       29.90R
GUAD PASS      PTCLDY    42  40  92 W21G29    29.94S WCI  33
HOBBS          FOG       45  45 100 W9        29.90S VSB 1/4 WCI  40
MARFA          CLEAR     36  36 100 CALM      29.97S
MIDLAND AIRPK  CLOUDY    51  51 100 W5        29.89S FOG
MIDLAND INTL   FOG       49  48  97 W3        29.88R VSB 1/4
ODESSA         FOG       49  47  93 SW6       29.89R VSB 1/4
PECOS          FOG       43  42  97 CALM      29.91S VSB<1/4
PRESIDIO       FAIR      52  48  85 N6        29.91R
SEMINOLE       CLOUDY    47  47 100 W8        29.89F FOG
SNYDER         CLOUDY   N/A N/A N/A SW8       29.89F FOG
WINK           CLOUDY    46  43  89 SW6       29.89R FOG
$$
...OTHER STATIONS IN TEXAS...

CITY           SKY/WX    TMP DP  RH WIND       PRES   REMARKS
ABILENE        CLOUDY    54  52  93 SW7       29.88S
AMARILLO       CLOUDY    42  40  92 SW8       29.84R WCI  37
AUSTIN         CLOUDY    62  60  93 S9        29.92F
BROWNSVILLE    CLOUDY    66  62  87 SE10      29.98F
CORPUS CHRISTI CLOUDY    66  61  84 S16       29.91R
DALLAS FTW     LGT RAIN  53  52  96 S14       29.87F FOG
DEL RIO        CLOUDY    58  56  93 W6        29.94R FOG
EL PASO        MOCLDY    53  42  66 W8        29.92S
HOUSTON INT    CLOUDY    61  59  93 SE12      29.95F
LUBBOCK        CLOUDY    46  44  93 SW15      29.84S WCI  40
SAN ANGELO     CLOUDY    56  54  93 S8        29.91F
SAN ANTONIO    CLOUDY    62  60  93 SE7       29.93S
WACO           CLOUDY    58  56  93 S14G24    29.90F FOG
WICHITA FALLS  NOT AVBL
$$
...OTHER LOCATIONS IN NEW MEXICO...

CITY           SKY/WX    TMP DP  RH WIND       PRES   REMARKS
ALAMAGORDO     CLOUDY    46  43  87 S3        29.93S
ALBUQUERQUE    MOCLDY    38  33  82 N10       29.98R WCI  31
CANNON AFB     NOT AVBL
CLOVIS         CLOUDY    39  37  93 W10       29.83S WCI  32
HOLLOMAN AFB   PTCLDY    44  44 100 CALM      29.91S
ROSWELL        CLOUDY    44  42  93 CALM      29.89R FOG
RUIDOSO        CLOUDY    39  36  87 NW9       29.95S WCI  33
SANTA FE       FOG       32  30  92 W8        29.93R VSB 1/4 WCI  25
TRUTH OR CONSE MOCLDY    43  42  97 N3        29.93R
TUCUMCARI      FOG       34  33  96 N7        29.83R VSB 1   WCI  28
$$


USA.gov is the U.S. government's official web portal to all federal, state and local government web resources and services.